Wind_Speed
5 7 8 3 1 2 3 8 12 11 13 7 10 15 12 16 13 7 31 28 32 33 32 33 32 31 28 26 25 24 23 22 18 16 14 15 14 14 12 13 12 12 11 11 12 12 11 9 8
3 4 6 2 3 5 5 17 12 6 7 11 14 15 10 14 5 29 34 30 32 30 31 31 29 26 25 24 24 23 22 20 17 15 14 14 13 13 14 13 11 12 12 12 13 13 12 10 9
9 9 9 3 7 8 11 14 17 3 5 11 17 10 10 10 26 30 29 32 31 28 27 28 26 25 23 22 23 21 19 18 16 15 13 12 12 13 13 11 12 13 12 12 14 14 13 13 11
20 31 13 6 4 2 18 19 19 10 10 16 13 9 17 26 27 28 29 30 29 27 26 24 23 22 21 21 21 19 18 16 15 14 12 11 11 11 11 11 11 12 12 12 13 13 13 13 12
14 16 11 13 3 8 19 13 12 13 8 12 12 19 25 25 23 25 27 27 25 25 23 21 21 20 20 20 19 18 17 15 14 12 11 10 9 10 9 9 11 12 12 12 12 12 12 13 12
6 13 11 12 3 18 16 12 16 9 8 12 15 21 24 22 23 24 24 24 23 19 20 19 20 20 20 19 18 17 16 15 13 11 9 8 9 9 9 8 8 10 11 10 8 8 8 9 9
12 19 21 12 8 23 17 11 15 11 12 11 13 22 25 23 21 22 23 23 21 19 17 18 19 21 21 19 18 16 15 14 12 10 8 6 7 6 6 6 6 8 9 9 7 6 6 7 8
6 16 11 11 6 8 20 13 5 6 12 13 8 8 19 26 25 25 22 20 20 19 18 18 20 20 20 19 17 16 15 13 11 9 7 6 4 3 3 5 6 5 7 7 7 6 6 7 9
4 6 2 10 9 16 21 12 14 5 4 8 8 4 15 23 23 22 23 22 21 21 20 19 19 19 18 18 16 16 14 13 11 8 5 4 5 4 4 4 4 2 4 5 5 6 5 6 9
11 10 1 4 1 15 16 10 4 9 9 2 9 4 16 20 20 19 20 19 21 22 22 20 19 19 18 17 16 14 14 12 9 7 4 3 3 2 3 4 1 3 5 2 4 3 5 8 6
14 13 8 11 7 11 18 10 4 9 10 2 1 3 14 17 19 17 17 16 17 20 20 20 20 19 17 17 15 14 12 10 8 6 5 3 2 7 2 4 3 3 1 2 1 5 8 7 7
17 18 15 3 6 13 22 12 11 6 6 4 2 5 4 12 16 16 17 19 21 19 20 19 19 18 17 17 16 14 12 10 8 4 4 3 3 3 3 3 1 5 5 4 4 6 9 10 7
19 13 15 21 9 18 23 15 7 11 11 11 7 7 3 11 15 16 14 14 18 20 19 20 18 18 16 16 14 12 11 11 10 7 6 4 2 1 1 3 3 4 6 6 8 10 12 16 13
15 14 17 14 20 19 28 16 16 17 14 13 8 4 7 12 13 17 18 17 16 18 21 20 17 15 15 15 12 10 9 11 10 10 7 5 3 3 4 6 6 5 7 8 10 10 10 13 13
21 22 20 15 14 18 28 24 22 15 19 16 10 4 7 12 15 15 12 16 14 18 19 17 16 16 14 12 9 7 9 6 8 6 6 6 5 5 7 7 5 5 6 8 11 9 10 8 11
21 19 22 17 9 29 35 29 22 18 21 21 16 7 8 13 15 15 11 13 18 19 18 17 16 13 12 11 9 8 6 6 4 4 5 6 6 8 8 6 7 8 11 8 10 9 8 7 10
24 24 17 17 11 19 35 25 22 24 26 21 17 10 10 14 17 17 15 15 17 16 16 15 12 11 12 11 10 9 8 8 8 7 7 6 4 8 8 8 8 9 10 10 9 7 9 10 11
28 23 21 20 14 7 33 24 30 30 29 24 20 20 12 16 15 16 18 15 16 18 16 13 14 15 13 12 12 12 12 10 9 8 7 9 6 7 9 10 9 10 10 8 7 10 12 12 12
29 25 24 25 20 19 29 30 30 31 32 28 24 25 22 9 15 16 20 21 20 20 19 18 17 16 15 12 11 10 9 9 9 7 9 9 10 10 12 12 8 7 6 7 10 13 14 14 13
32 30 31 29 21 22 30 30 30 34 34 33 25 28 23 16 16 21 22 22 22 19 19 20 19 18 15 15 14 12 11 11 13 12 14 12 13 13 13 9 6 3 7 7 9 11 12 13 14
32 36 38 32 20 22 26 32 38 37 38 34 30 27 24 23 19 21 26 26 25 24 22 19 17 18 17 17 17 17 17 15 11 10 11 11 13 11 7 2 4 6 6 6 8 12 14 16 14
35 44 39 34 29 26 14 10 30 38 41 40 32 32 32 28 28 24 20 31 30 28 24 22 21 19 18 18 18 17 16 15 12 10 8 6 12 7 6 7 6 7 6 7 10 13 15 17 16
43 34 37 36 34 33 34 19 31 31 47 47 41 38 29 28 34 29 21 17 21 29 29 25 24 23 22 21 19 18 17 15 15 13 11 10 10 10 10 9 8 7 6 7 9 12 20 22 19
32 30 31 33 36 21 34 31 33 30 33 41 41 38 27 26 31 34 24 15 16 19 21 23 27 28 26 25 22 20 17 16 16 14 12 11 12 14 12 11 9 5 4 5 7 6 15 24 18
32 33 21 14 16 11 32 31 32 29 30 38 37 39 39 29 28 34 32 24 19 18 19 21 24 24 30 28 25 21 17 16 15 14 12 12 14 13 13 12 9 6 3 1 6 10 14 19 25
37 40 28 10 5 8 33 16 32 32 31 31 31 33 37 31 21 28 32 22 24 24 21 20 20 21 25 31 27 22 20 17 17 16 14 13 14 15 15 12 10 8 7 6 6 10 14 16 20
41 40 34 40 33 13 20 25 37 33 29 35 36 36 39 39 29 30 25 27 30 30 25 22 18 19 19 27 28 24 21 20 20 19 15 17 17 17 17 15 14 12 10 9 9 12 15 17 18
39 34 31 29 14 18 15 19 36 35 38 30 40 39 38 42 36 33 29 28 34 34 32 24 20 18 17 20 21 22 20 21 22 20 18 21 20 19 16 15 14 12 10 13 13 15 18 22 22
44 46 37 37 32 11 5 33 44 38 38 29 26 34 41 42 42 38 30 30 32 32 32 29 24 22 23 22 19 19 21 24 24 21 19 22 22 20 17 16 18 17 18 17 17 19 21 23 25
35 46 44 32 25 36 42 48 19 26 31 35 33 30 43 46 42 42 34 33 30 32 33 30 26 25 25 23 22 19 22 25 25 21 20 22 20 18 17 16 16 19 21 22 21 22 24 26 28
Wind_Direction
333 352 350 152 264 194 216 156 145 136 140 155 153 136 134 141 146 164 143 137 137 135 131 131 131 133 133 137 137 138 138 132 128 120 106 97 91 85 77 70 63 66 66 66 70 72 72 68 76
326 301 248 202 205 183 187 140 138 115 152 154 163 170 161 153 171 148 138 137 138 133 129 132 131 131 134 139 140 141 138 135 131 121 103 97 87 77 68 64 65 65 69 66 69 70 68 63 56
351 7 74 269 220 199 138 151 144 92 125 172 168 152 167 145 136 138 136 136 140 138 133 134 134 135 137 140 142 142 142 141 132 120 105 93 84 73 66 65 68 72 72 73 74 72 69 66 61
51 59 79 271 221 186 150 156 156 116 121 167 153 136 134 134 144 140 136 137 141 139 137 136 137 138 138 140 143 147 148 140 133 122 104 93 82 70 63 68 73 73 78 72 72 70 68 70 67
56 29 41 331 220 123 152 91 158 130 124 162 168 136 133 142 152 143 140 140 142 141 142 142 142 143 145 145 148 151 145 141 133 124 110 99 85 70 73 81 83 74 73 73 73 73 72 69 63
326 339 341 340 111 165 155 114 121 133 150 155 169 159 144 150 154 149 146 142 146 148 146 151 150 151 150 150 150 149 145 143 139 133 123 111 92 77 87 89 91 78 72 73 72 74 73 68 52
339 338 344 24 145 162 151 136 137 103 59 123 172 161 147 160 159 155 154 152 152 151 154 155 155 155 153 151 151 149 147 149 146 137 133 113 96 100 105 98 86 81 75 70 65 59 49 32 22
332 337 338 46 105 198 154 141 156 73 82 99 140 192 166 156 164 169 164 159 157 157 159 160 158 157 154 154 153 151 151 151 147 146 138 119 113 112 121 98 79 68 78 72 55 31 19 24 12
277 295 360 353 55 180 162 157 141 127 71 118 126 113 167 160 169 168 166 165 163 166 164 162 158 160 161 159 157 156 156 155 157 154 143 135 93 72 47 46 76 39 52 66 38 19 8 13 356
242 252 214 50 94 168 178 188 220 150 144 218 154 137 170 171 175 173 165 169 168 171 167 163 165 168 166 163 162 162 166 162 164 159 150 114 100 74 76 39 268 42 33 124 15 40 331 320 324
246 258 256 309 228 265 194 193 182 182 201 98 111 311 173 183 181 179 165 176 171 171 169 166 170 171 171 170 169 170 175 169 175 174 173 156 125 81 309 78 46 348 324 13 28 333 319 316 333
240 236 265 130 178 223 196 201 202 260 276 221 263 2 167 192 182 179 174 172 181 176 169 172 174 173 176 180 177 179 180 182 185 191 189 182 155 106 66 85 131 302 320 353 340 342 340 339 23
239 226 234 265 255 193 197 224 244 208 229 194 213 325 206 180 179 177 186 183 186 178 173 178 179 177 185 188 185 186 183 196 208 205 224 231 157 88 273 268 309 310 319 329 354 341 343 357 7
223 261 262 295 227 210 211 190 198 200 217 209 230 294 206 191 178 179 189 193 188 178 177 179 171 178 181 196 196 196 197 213 219 216 226 234 226 228 225 242 288 321 330 346 349 348 351 336 342
256 277 270 234 257 236 201 186 193 219 219 220 227 207 212 200 181 189 195 196 197 179 180 179 172 179 178 184 194 199 209 200 210 212 237 243 238 239 250 274 293 320 318 319 339 338 338 330 327
249 264 279 210 250 219 199 188 211 210 216 218 213 220 215 213 196 187 199 192 183 178 179 184 183 179 182 185 197 210 226 234 235 229 256 258 260 250 255 267 278 296 308 305 327 328 324 315 308
241 258 251 243 227 214 199 203 210 199 207 223 219 231 226 211 201 198 200 187 183 184 180 180 188 190 193 196 207 221 236 253 271 280 275 272 215 250 261 271 281 292 311 324 318 323 341 344 335
224 235 245 238 199 240 212 217 192 194 210 225 233 216 230 227 209 202 202 204 194 186 189 190 194 205 209 209 214 224 239 242 258 268 270 266 215 250 261 276 287 300 321 320 11 22 13 359 345
227 232 241 215 239 307 243 217 206 208 214 222 233 226 220 238 232 218 215 218 211 201 198 197 202 206 218 229 240 247 259 259 259 259 242 240 241 244 261 280 290 310 10 32 26 23 17 5 3
223 230 230 229 241 279 219 210 201 207 219 222 234 231 234 230 224 223 225 223 226 216 211 214 211 216 225 231 238 241 247 249 250 255 258 247 248 252 255 269 268 59 64 41 29 29 21 14 14
227 227 232 243 246 283 232 200 192 208 214 219 229 250 249 244 247 233 224 226 227 225 220 223 220 222 227 231 234 236 239 245 258 260 268 252 241 241 250 173 112 89 75 58 37 32 22 12 5
231 218 234 249 262 275 206 235 210 207 209 217 222 243 245 246 244 257 235 228 226 226 221 223 226 226 230 234 234 240 249 249 250 249 255 248 204 211 196 145 125 118 93 58 42 37 29 20 6
227 227 238 250 257 263 263 248 242 224 215 213 230 239 241 249 240 252 252 240 240 235 229 226 231 228 231 232 233 241 248 252 246 245 234 242 212 187 176 146 144 120 96 54 35 41 29 14 3
226 233 243 254 254 248 252 237 222 216 229 229 222 228 241 240 237 242 255 258 258 250 232 226 230 234 235 240 234 237 243 245 243 247 238 232 202 187 169 156 153 139 113 60 30 20 9 18 31
230 234 238 251 238 238 251 237 230 239 237 224 228 229 237 234 241 235 245 240 235 230 220 223 227 232 233 237 244 242 235 234 232 234 233 216 200 177 160 155 165 187 196 199 5 0 3 6 26
227 228 218 221 221 252 248 235 245 246 246 238 240 238 229 225 216 235 231 235 233 234 224 219 220 229 235 232 238 240 233 221 221 226 222 196 186 174 167 174 189 213 228 246 308 337 337 344 357
225 235 239 236 246 277 259 256 257 248 246 242 247 238 231 226 220 224 233 248 243 250 232 226 218 228 236 231 235 234 230 215 219 221 211 192 186 177 171 185 204 227 237 255 284 312 313 323 333
230 230 227 222 221 239 242 243 241 243 242 253 253 252 232 228 221 229 237 229 234 245 251 243 224 221 233 230 233 234 225 213 218 219 209 195 189 185 183 196 212 231 250 261 275 294 307 310 318
221 231 232 234 230 230 236 252 244 244 244 262 273 253 231 225 220 225 240 226 230 231 243 249 235 221 219 222 224 233 218 209 217 218 210 196 195 190 195 208 223 236 251 261 275 289 296 299 304
237 230 230 221 216 230 237 246 250 245 255 262 277 265 237 227 227 224 233 224 224 231 234 236 231 221 216 221 221 228 220 213 215 211 207 198 195 197 203 214 225 235 247 260 274 285 295 296 297
Height
3173 3173 3171 3169 3173 3168 3167 3168 3167 3167 3167 3168 3168 3167 3167 3164 3165 3169 3168 3173 3175 3179 3181 3184 3187 3191 3194 3197 3199 3201 3203 3204 3207 3208 3209 3209 3209 3210 3210 3209 3209 3209 3209 3209 3208 3207 3206 3205 3204
3173 3173 3173 3172 3172 3166 3166 3168 3168 3170 3169 3169 3169 3169 3167 3166 3165 3167 3168 3174 3178 3182 3184 3187 3191 3194 3196 3198 3200 3203 3205 3207 3208 3210 3210 3211 3212 3212 3211 3211 3211 3211 3211 3210 3209 3208 3207 3206 3205
3172 3173 3175 3172 3171 3169 3169 3169 3170 3169 3170 3170 3169 3170 3169 3167 3169 3170 3174 3176 3181 3185 3187 3190 3193 3196 3198 3200 3202 3204 3207 3208 3210 3211 3212 3213 3213 3212 3212 3213 3213 3212 3212 3211 3210 3210 3209 3208 3207
3173 3172 3170 3171 3169 3175 3171 3171 3171 3170 3170 3172 3172 3170 3171 3171 3174 3175 3178 3180 3184 3187 3190 3193 3195 3198 3200 3202 3204 3206 3209 3210 3212 3214 3214 3215 3214 3214 3214 3214 3214 3214 3213 3212 3212 3211 3211 3211 3209
3173 3173 3170 3170 3170 3175 3174 3169 3170 3170 3170 3172 3174 3172 3172 3176 3178 3180 3181 3183 3187 3189 3192 3195 3197 3200 3202 3204 3206 3208 3210 3211 3214 3215 3216 3216 3216 3216 3215 3215 3215 3215 3215 3214 3213 3213 3213 3212 3210
3173 3173 3174 3172 3170 3172 3172 3171 3169 3172 3172 3171 3174 3174 3175 3178 3181 3182 3184 3186 3189 3192 3193 3196 3199 3201 3204 3205 3208 3210 3211 3213 3215 3216 3216 3217 3217 3217 3217 3217 3215 3215 3215 3215 3215 3214 3214 3213 3213
3173 3171 3170 3169 3166 3170 3169 3170 3170 3171 3172 3172 3174 3174 3176 3179 3183 3185 3185 3188 3190 3193 3195 3197 3200 3203 3205 3207 3209 3211 3212 3213 3216 3217 3218 3218 3218 3218 3218 3218 3217 3216 3216 3216 3216 3216 3215 3215 3213
3175 3170 3166 3168 3170 3171 3170 3172 3176 3176 3174 3175 3178 3177 3176 3178 3182 3185 3186 3188 3191 3193 3196 3198 3201 3204 3206 3207 3210 3212 3213 3215 3217 3218 3218 3218 3218 3219 3219 3219 3219 3218 3217 3217 3217 3217 3216 3215 3214
3176 3174 3167 3167 3167 3170 3172 3172 3175 3176 3175 3177 3177 3178 3179 3179 3182 3185 3186 3187 3190 3192 3196 3199 3202 3205 3207 3209 3211 3213 3214 3216 3218 3218 3218 3218 3219 3220 3221 3221 3219 3218 3218 3218 3218 3217 3217 3215 3214
3173 3173 3171 3171 3170 3170 3168 3168 3170 3173 3175 3175 3176 3178 3179 3180 3182 3184 3186 3188 3190 3193 3195 3199 3202 3205 3207 3210 3212 3214 3215 3217 3218 3218 3219 3220 3220 3220 3220 3220 3219 3219 3219 3217 3216 3216 3216 3215 3213
3170 3169 3169 3170 3169 3171 3170 3170 3169 3170 3172 3173 3175 3177 3178 3180 3182 3184 3187 3189 3192 3194 3197 3199 3202 3205 3208 3210 3212 3213 3215 3217 3217 3218 3218 3219 3220 3220 3220 3219 3219 3219 3219 3217 3216 3215 3215 3214 3212
3166 3166 3168 3172 3171 3170 3167 3168 3168 3170 3172 3174 3176 3177 3179 3179 3181 3184 3187 3190 3191 3194 3197 3200 3202 3205 3208 3209 3211 3212 3214 3215 3216 3217 3217 3219 3220 3220 3219 3219 3219 3219 3218 3217 3215 3214 3214 3212 3210
3163 3163 3165 3171 3172 3169 3169 3166 3166 3170 3172 3174 3176 3176 3178 3179 3181 3184 3187 3190 3192 3195 3197 3200 3203 3205 3207 3209 3211 3212 3213 3214 3214 3216 3216 3217 3219 3219 3219 3219 3219 3219 3218 3217 3215 3214 3212 3210 3208
3160 3160 3160 3165 3169 3170 3170 3171 3167 3169 3172 3173 3174 3176 3177 3179 3181 3183 3186 3188 3191 3194 3197 3199 3202 3204 3206 3209 3210 3211 3212 3213 3215 3215 3216 3216 3217 3218 3219 3218 3218 3218 3217 3215 3214 3213 3211 3210 3208
3157 3156 3155 3156 3164 3166 3170 3169 3166 3165 3166 3171 3173 3175 3175 3177 3180 3182 3185 3187 3190 3194 3197 3199 3201 3204 3205 3207 3209 3209 3211 3213 3214 3214 3215 3215 3216 3218 3218 3218 3217 3216 3215 3215 3214 3213 3211 3209 3207
3153 3154 3153 3152 3157 3159 3162 3162 3162 3163 3165 3168 3171 3173 3175 3176 3178 3181 3184 3186 3190 3193 3195 3197 3199 3202 3203 3205 3207 3208 3209 3210 3211 3213 3214 3215 3215 3216 3217 3218 3217 3216 3215 3215 3214 3211 3210 3208 3207
3149 3149 3151 3149 3154 3158 3157 3157 3158 3161 3163 3164 3165 3167 3171 3174 3176 3179 3182 3185 3188 3191 3193 3195 3197 3199 3202 3204 3205 3206 3208 3208 3208 3210 3213 3214 3215 3215 3215 3215 3215 3214 3214 3213 3212 3211 3209 3207 3204
3145 3148 3148 3148 3151 3156 3154 3153 3153 3157 3161 3162 3164 3165 3167 3170 3174 3177 3180 3182 3186 3189 3190 3193 3196 3199 3201 3202 3204 3204 3205 3207 3208 3210 3211 3211 3213 3213 3212 3213 3213 3212 3212 3212 3211 3209 3208 3206 3204
3144 3146 3145 3144 3147 3151 3148 3150 3150 3152 3158 3161 3162 3164 3168 3169 3170 3174 3176 3180 3182 3185 3187 3191 3194 3196 3198 3200 3202 3203 3204 3205 3207 3208 3209 3209 3210 3211 3211 3211 3212 3212 3211 3211 3210 3209 3208 3207 3205
3139 3141 3139 3140 3144 3149 3147 3146 3147 3149 3150 3154 3159 3162 3164 3169 3170 3170 3172 3175 3177 3181 3184 3188 3191 3193 3196 3198 3200 3201 3202 3204 3204 3205 3206 3207 3207 3208 3209 3209 3210 3211 3211 3212 3211 3210 3209 3208 3206
3133 3136 3133 3139 3142 3145 3144 3145 3147 3149 3152 3154 3156 3158 3160 3163 3166 3168 3169 3170 3174 3176 3180 3184 3188 3191 3193 3195 3197 3198 3199 3200 3202 3203 3204 3203 3205 3206 3207 3208 3208 3210 3211 3211 3211 3210 3210 3208 3207
3127 3130 3133 3137 3142 3142 3144 3145 3146 3148 3148 3149 3150 3153 3155 3158 3161 3164 3165 3167 3168 3172 3177 3180 3183 3187 3189 3192 3193 3195 3196 3197 3199 3200 3199 3200 3202 3203 3205 3206 3209 3210 3211 3211 3211 3209 3208 3207 3205
3119 3130 3132 3135 3138 3139 3138 3139 3137 3141 3141 3143 3145 3148 3151 3153 3156 3159 3160 3162 3164 3169 3172 3176 3178 3181 3184 3187 3190 3192 3193 3194 3195 3195 3197 3198 3200 3202 3204 3206 3208 3209 3210 3210 3209 3209 3208 3206 3202
3123 3127 3128 3130 3132 3128 3128 3132 3128 3128 3133 3138 3142 3143 3145 3148 3151 3154 3158 3160 3161 3165 3168 3171 3174 3177 3180 3182 3185 3186 3189 3190 3191 3192 3194 3196 3198 3200 3203 3204 3206 3207 3209 3209 3209 3208 3207 3205 3202
3116 3121 3122 3122 3119 3114 3121 3123 3119 3123 3125 3129 3134 3137 3138 3143 3146 3149 3153 3154 3157 3158 3161 3165 3168 3171 3174 3177 3180 3183 3184 3186 3188 3189 3191 3194 3196 3198 3201 3202 3203 3205 3207 3207 3207 3206 3206 3204 3202
3105 3110 3109 3117 3113 3109 3113 3109 3109 3117 3120 3123 3126 3130 3135 3137 3140 3141 3145 3149 3151 3154 3156 3159 3163 3167 3169 3172 3175 3178 3179 3181 3183 3185 3187 3191 3193 3196 3198 3200 3201 3202 3204 3205 3205 3205 3204 3203 3202
3096 3099 3107 3106 3105 3107 3100 3103 3104 3111 3114 3116 3118 3122 3125 3129 3132 3133 3137 3142 3145 3148 3152 3154 3159 3162 3164 3167 3169 3172 3175 3177 3178 3181 3185 3187 3190 3193 3195 3196 3198 3200 3201 3202 3202 3202 3201 3201 3200
3087 3097 3099 3096 3101 3101 3094 3095 3089 3099 3104 3110 3112 3114 3116 3119 3124 3127 3131 3133 3138 3142 3147 3151 3155 3157 3161 3162 3164 3167 3170 3172 3173 3177 3181 3184 3187 3190 3191 3193 3195 3197 3198 3199 3199 3199 3199 3198 3197
3078 3079 3083 3088 3089 3089 3094 3074 3085 3092 3099 3103 3103 3102 3107 3108 3115 3121 3124 3128 3133 3137 3140 3146 3150 3152 3154 3157 3160 3163 3166 3168 3169 3173 3176 3180 3183 3185 3187 3189 3191 3192 3194 3195 3196 3196 3196 3195 3193
3066 3069 3075 3077 3076 3074 3073 3052 3079 3088 3094 3097 3097 3094 3097 3101 3108 3114 3120 3124 3129 3132 3133 3139 3143 3146 3149 3154 3156 3159 3161 3164 3166 3169 3172 3175 3178 3180 3182 3184 3186 3188 3189 3190 3192 3192 3191 3190 3188